Wind_Speed
21 22 23 24 25 26 27 27 28 26 26 24 26 28 29 29 29 30 30 31 32 33 35 36 37 38 40 41 42 43 44 44 45 46 46 46 47 46 46 45 45 44 43 43
22 23 24 24 25 25 26 26 26 27 25 25 28 29 30 30 30 31 31 31 32 33 34 35 36 37 38 39 39 40 41 42 42 42 43 43 43 43 42 42 42 42 41 41
22 24 25 24 23 24 25 26 27 27 25 27 28 28 29 30 30 30 30 31 32 33 34 34 35 35 35 36 37 38 39 39 40 41 41 42 42 41 41 40 40 40 39 38
24 24 25 23 24 25 26 26 27 27 27 27 27 27 28 29 30 30 30 31 31 32 32 33 34 34 34 35 35 37 38 38 38 39 39 39 39 39 39 38 37 37 36 36
26 26 26 25 25 25 27 27 28 27 27 27 27 27 28 29 29 29 30 30 30 31 31 32 32 33 34 34 35 36 36 37 37 37 37 37 36 36 36 36 35 35 35 34
25 26 25 25 25 26 27 27 27 27 27 27 27 27 28 28 29 29 29 29 29 29 30 31 32 33 33 33 34 34 34 34 34 34 34 34 34 33 33 33 33 33 32 32
25 26 25 24 24 25 26 26 26 26 27 27 27 27 27 27 27 27 27 27 28 28 28 29 31 31 32 33 32 32 31 31 31 31 32 32 32 31 31 31 31 31 31 31
23 25 25 24 24 24 25 25 25 26 26 26 26 26 26 26 26 26 27 27 26 27 27 27 28 29 29 30 30 30 30 30 30 30 30 29 29 30 30 29 29 30 30 30
23 24 25 25 25 24 24 24 24 24 25 25 25 25 25 25 25 25 26 26 26 26 26 26 27 27 28 27 27 27 27 28 28 28 28 28 28 28 29 29 28 28 28 29
21 22 23 23 23 24 24 24 23 23 23 23 23 24 24 24 24 24 24 24 25 25 25 25 25 26 26 26 26 25 26 26 26 27 27 27 27 28 28 28 28 28 28 29
22 22 23 23 23 23 23 24 24 24 23 23 23 23 23 23 23 23 23 23 23 24 24 24 24 25 25 25 25 25 26 26 26 27 27 26 27 27 27 28 28 28 28 29
20 21 22 23 24 24 24 24 24 24 24 24 24 24 23 23 23 23 23 23 23 24 24 24 24 24 25 25 25 26 26 27 27 27 27 27 27 27 28 28 28 29 29 30
20 21 22 22 23 24 24 24 24 24 24 25 24 24 24 24 24 24 24 24 24 24 24 24 24 25 25 25 26 26 27 27 27 27 27 27 28 28 29 29 30 30 31 31
19 20 22 23 23 24 25 25 26 26 26 26 26 25 25 25 25 25 25 25 25 25 25 26 26 27 26 26 27 27 27 27 27 28 28 29 29 30 30 30 31 31 32 32
20 21 22 22 23 24 25 26 26 27 27 27 27 27 27 27 26 26 27 27 27 27 27 27 28 28 28 28 28 29 29 29 29 30 30 31 31 31 31 31 32 32 33 33
19 20 21 22 23 24 26 26 27 27 27 28 28 28 28 28 27 27 28 28 28 28 28 28 29 29 29 30 30 30 30 30 30 30 31 31 31 31 31 32 33 34 34 35
18 19 20 21 22 24 25 26 27 28 28 28 29 29 28 28 27 27 28 28 28 29 29 29 30 30 30 31 31 31 31 32 31 31 31 32 32 32 33 34 34 35 35 36
17 18 19 20 21 22 24 25 25 26 27 28 28 29 28 28 28 28 27 28 28 28 29 29 30 30 31 31 31 32 32 33 33 33 34 33 34 34 35 35 35 35 35 36
18 18 19 20 20 20 20 20 21 21 22 23 24 26 26 27 27 27 27 27 27 28 28 29 30 30 31 32 32 32 33 33 34 34 35 35 35 35 35 36 35 35 36 36
19 18 18 19 19 18 17 17 18 19 20 20 21 23 24 25 26 26 27 27 28 28 29 29 29 30 30 31 31 32 32 33 33 34 35 35 35 35 35 35 36 36 37 38
21 20 19 19 19 19 18 18 18 19 19 19 20 22 23 24 25 25 26 27 27 27 27 28 28 28 28 29 30 31 31 31 32 33 33 34 34 34 35 35 36 36 37 38
22 22 21 21 20 20 19 19 20 20 20 21 21 21 22 23 24 24 24 24 24 25 25 26 26 27 28 28 28 29 30 31 31 32 32 33 33 33 34 35 35 36 36 36
24 23 23 23 22 21 21 21 21 22 22 22 23 23 23 23 23 23 23 23 23 24 24 25 25 26 27 27 28 29 29 30 30 30 31 32 32 33 33 34 34 35 36 36
25 25 24 24 24 24 23 23 23 23 23 23 23 24 24 24 24 24 24 24 24 24 24 25 25 25 26 26 27 28 28 29 29 29 29 30 31 31 32 33 33 34 34 35
28 27 27 27 26 26 26 26 25 25 25 24 24 24 24 25 25 25 25 24 24 24 25 25 25 26 26 26 26 26 27 28 28 29 29 30 31 31 32 32 32 32 33 34
31 31 30 30 29 29 28 28 28 27 27 27 26 26 26 26 27 27 27 27 26 26 26 26 26 26 26 26 27 27 27 28 28 29 30 30 31 31 31 32 32 32 33 33
33 33 32 32 33 32 31 31 30 30 29 29 29 28 28 27 27 28 28 28 28 28 28 28 27 27 27 28 28 28 28 29 29 29 30 30 30 31 31 32 32 32 33 33
Wind_Direction
234 234 235 236 236 238 240 242 244 243 244 244 245 246 247 249 252 253 254 255 255 256 256 255 256 256 256 256 257 258 259 261 262 262 263 265 265 266 267 268 268 270 272 273
237 237 239 240 240 242 244 246 248 248 246 247 248 250 251 253 254 255 256 257 257 258 258 257 257 257 257 258 259 259 260 261 262 263 263 264 265 265 266 267 268 269 270 271
242 242 242 242 242 244 246 247 249 250 249 250 251 253 254 255 256 257 258 257 258 259 258 257 257 258 258 259 259 259 260 261 261 262 262 263 263 263 264 265 267 268 269 270
246 247 247 246 245 247 249 250 251 252 252 254 254 255 257 256 256 256 257 258 258 258 257 256 257 258 259 259 259 260 261 262 263 263 263 263 263 263 263 265 266 267 268 268
247 249 250 250 251 251 252 252 254 255 256 256 256 256 257 257 258 258 259 259 258 258 257 257 257 258 259 260 260 261 262 263 264 263 263 263 263 263 263 264 265 265 266 267
248 250 251 251 252 253 254 254 254 256 257 257 256 256 257 258 258 258 258 258 258 257 258 258 258 258 259 260 261 262 263 263 263 263 262 262 262 262 263 264 264 265 265 266
250 251 252 251 253 253 254 255 254 255 255 255 256 257 257 257 258 257 257 257 258 257 257 258 258 259 260 260 260 260 261 262 262 262 261 261 262 262 263 263 264 264 265 265
251 251 253 253 254 254 255 255 255 255 256 256 257 257 256 257 256 256 256 257 257 257 257 258 258 259 259 259 260 260 260 261 261 262 262 263 263 263 262 263 263 264 264 265
253 253 254 255 255 254 254 255 255 255 255 256 257 257 257 256 256 256 257 256 256 256 257 258 259 259 257 258 259 260 260 261 262 262 262 262 263 263 263 262 264 264 264 265
254 254 254 255 255 254 253 254 254 255 255 255 256 258 258 257 256 256 256 256 256 256 256 258 258 258 257 257 259 260 260 260 261 261 262 263 264 264 264 265 265 264 265 266
254 254 253 255 256 256 255 254 253 253 255 256 256 257 257 256 256 256 255 255 255 256 257 258 258 257 257 257 258 259 259 260 262 262 261 262 264 265 265 265 266 267 267 268
256 256 257 258 258 258 258 257 256 255 255 256 256 257 257 256 256 256 256 256 256 257 257 257 257 258 257 257 258 260 261 261 262 262 262 262 264 266 267 267 268 269 268 269
260 259 258 257 258 258 257 257 257 257 257 258 257 257 256 256 257 257 257 257 257 258 257 258 258 258 259 260 260 260 261 261 262 263 263 263 265 266 268 269 269 270 270 270
267 263 260 259 259 259 257 258 259 259 259 258 258 257 256 256 257 257 258 258 259 259 259 259 259 260 261 261 261 262 262 262 263 264 263 264 266 267 269 269 270 271 272 272
272 268 265 264 263 262 260 260 261 261 260 260 259 258 257 257 258 258 258 259 260 260 260 261 261 262 262 263 263 263 264 263 264 265 265 266 267 268 269 269 270 271 272 273
279 275 272 268 266 266 264 262 262 262 261 260 260 259 258 258 258 258 259 260 260 261 261 262 263 263 264 264 264 264 264 264 265 266 266 267 267 268 269 270 271 272 273 273
285 280 276 273 272 270 267 265 264 263 261 260 260 259 258 257 258 259 259 260 261 261 263 263 264 264 264 264 264 264 264 264 264 265 267 268 268 269 269 270 272 273 274 274
292 285 282 280 277 275 272 268 265 263 261 260 260 257 256 256 258 260 261 262 262 263 264 265 265 264 265 265 265 265 266 265 264 265 267 268 269 269 270 271 272 273 274 275
297 291 288 287 284 279 274 270 267 264 262 260 259 256 256 256 258 260 261 262 264 265 267 267 267 266 266 266 265 266 266 265 265 266 267 268 270 270 271 271 272 273 274 275
301 295 293 291 289 284 277 271 268 266 264 262 261 260 259 259 260 261 262 264 266 267 268 269 269 268 267 267 266 266 267 267 266 266 267 268 269 270 271 272 272 273 275 276
299 294 292 289 287 283 278 272 270 267 266 265 265 264 263 262 262 263 265 267 267 268 267 268 268 269 269 269 268 267 267 267 267 267 268 269 270 271 271 272 273 275 276 278
297 293 290 289 285 282 277 273 271 270 269 268 268 267 265 264 264 265 265 267 268 268 269 270 270 271 271 271 270 270 269 269 269 269 269 270 271 272 273 274 275 276 277 278
295 291 287 285 284 281 277 274 272 271 270 269 267 267 267 266 266 266 266 267 268 269 271 272 273 274 274 273 272 272 271 271 270 270 271 271 272 274 275 276 277 277 277 278
293 290 286 283 281 278 275 273 272 271 271 270 268 268 267 267 266 266 267 268 269 270 272 274 274 274 275 276 274 273 272 272 271 271 272 274 275 276 277 278 279 279 279 280
288 285 283 281 278 276 274 272 271 271 269 269 269 269 268 266 266 267 268 269 271 273 275 276 276 277 277 277 277 276 275 274 273 273 275 277 278 279 279 279 279 280 281 282
285 282 281 279 277 276 273 271 270 269 269 268 269 269 269 268 267 267 268 269 271 273 276 277 278 278 278 278 278 278 278 277 276 276 277 279 280 280 280 280 281 282 282 283
283 281 280 279 277 275 272 270 269 268 268 268 267 267 268 268 269 268 269 270 271 273 275 277 279 279 280 280 280 280 279 279 279 279 279 280 280 281 281 281 282 283 283 284
Height
5649 5651 5653 5654 5657 5658 5660 5662 5664 5667 5669 5671 5671 5671 5673 5674 5676 5678 5679 5681 5682 5683 5685 5686 5688 5689 5691 5692 5693 5695 5696 5697 5698 5699 5700 5700 5701 5701 5702 5702 5702 5702 5702 5702
5644 5646 5647 5649 5651 5653 5654 5656 5658 5660 5663 5663 5663 5665 5666 5668 5669 5671 5672 5673 5674 5675 5676 5678 5679 5680 5681 5682 5684 5684 5685 5686 5687 5688 5688 5689 5690 5690 5690 5691 5691 5691 5691 5690
5639 5640 5641 5644 5646 5647 5648 5650 5651 5653 5656 5656 5657 5658 5659 5660 5662 5663 5664 5665 5666 5666 5667 5669 5670 5671 5672 5673 5674 5675 5675 5676 5676 5677 5678 5678 5679 5679 5680 5680 5680 5680 5680 5680
5633 5634 5636 5641 5640 5641 5642 5643 5644 5646 5647 5649 5650 5651 5652 5652 5654 5655 5656 5656 5657 5658 5659 5660 5661 5662 5663 5664 5664 5665 5665 5666 5666 5667 5667 5668 5668 5669 5669 5669 5670 5670 5670 5670
5626 5627 5629 5632 5633 5634 5635 5636 5637 5639 5640 5641 5642 5644 5644 5645 5646 5647 5647 5648 5649 5649 5650 5651 5652 5653 5654 5655 5655 5656 5656 5656 5657 5657 5657 5658 5658 5659 5659 5660 5660 5660 5660 5660
5619 5620 5622 5626 5626 5626 5629 5629 5631 5631 5633 5634 5635 5636 5637 5637 5638 5638 5639 5640 5640 5641 5642 5643 5644 5644 5645 5646 5646 5646 5647 5647 5647 5648 5648 5648 5649 5649 5650 5650 5651 5651 5651 5651
5612 5613 5615 5618 5618 5620 5622 5623 5623 5624 5625 5626 5627 5628 5629 5629 5630 5630 5631 5632 5632 5633 5634 5634 5635 5636 5636 5637 5637 5638 5638 5638 5638 5639 5639 5640 5640 5641 5641 5642 5642 5642 5642 5643
5605 5606 5610 5610 5611 5613 5614 5615 5615 5616 5618 5619 5620 5620 5621 5621 5622 5622 5623 5624 5624 5625 5625 5626 5627 5627 5628 5628 5629 5629 5630 5630 5630 5631 5631 5632 5632 5632 5633 5633 5634 5634 5634 5634
5600 5602 5601 5602 5603 5605 5606 5607 5608 5609 5610 5611 5612 5613 5613 5614 5614 5615 5615 5616 5617 5617 5618 5618 5619 5619 5620 5620 5621 5621 5622 5622 5622 5623 5623 5624 5624 5625 5625 5625 5625 5625 5626 5626
5592 5593 5594 5595 5596 5597 5598 5599 5600 5602 5602 5603 5604 5605 5606 5606 5607 5607 5608 5608 5609 5610 5610 5611 5611 5612 5612 5613 5613 5614 5614 5615 5615 5615 5616 5616 5616 5617 5617 5617 5617 5617 5617 5617
5585 5586 5587 5588 5589 5590 5590 5592 5593 5594 5595 5596 5597 5597 5598 5599 5599 5600 5601 5601 5602 5602 5603 5603 5604 5604 5605 5605 5606 5606 5607 5607 5608 5608 5608 5608 5609 5609 5609 5609 5609 5609 5609 5609
5579 5580 5581 5581 5581 5582 5583 5584 5585 5586 5587 5588 5589 5590 5591 5591 5592 5593 5593 5594 5595 5595 5596 5596 5596 5597 5597 5598 5598 5599 5599 5600 5600 5600 5600 5601 5601 5601 5601 5601 5601 5601 5601 5600
5573 5573 5574 5574 5574 5575 5575 5576 5578 5579 5580 5580 5581 5582 5583 5584 5584 5585 5586 5587 5587 5588 5588 5589 5589 5590 5590 5590 5591 5591 5592 5592 5592 5592 5592 5593 5593 5593 5593 5593 5592 5592 5592 5591
5567 5567 5567 5567 5567 5568 5568 5569 5570 5571 5571 5572 5573 5574 5575 5576 5577 5577 5578 5579 5579 5580 5580 5581 5581 5582 5582 5583 5583 5583 5583 5583 5584 5584 5584 5584 5584 5584 5584 5584 5584 5583 5583 5582
5561 5560 5560 5559 5559 5560 5560 5561 5561 5562 5563 5564 5565 5565 5566 5567 5568 5569 5570 5570 5571 5571 5572 5573 5573 5573 5574 5574 5574 5574 5575 5575 5575 5575 5575 5575 5575 5575 5575 5575 5574 5574 5573 5572
5554 5553 5552 5551 5552 5552 5552 5552 5553 5553 5554 5555 5555 5556 5557 5558 5559 5560 5560 5561 5562 5562 5563 5563 5564 5564 5565 5565 5565 5565 5566 5566 5566 5566 5566 5566 5566 5566 5565 5565 5564 5564 5563 5562
5548 5547 5546 5545 5544 5543 5543 5543 5543 5543 5544 5545 5546 5547 5548 5549 5550 5551 5551 5552 5553 5553 5554 5554 5554 5555 5555 5555 5555 5556 5556 5556 5556 5556 5556 5556 5556 5556 5555 5555 5554 5554 5553 5551
5543 5541 5540 5538 5536 5535 5533 5532 5532 5532 5533 5535 5535 5536 5538 5539 5541 5542 5542 5543 5543 5544 5544 5544 5545 5545 5545 5545 5545 5545 5546 5546 5546 5546 5546 5546 5546 5545 5545 5544 5544 5543 5542 5540
5537 5536 5534 5532 5529 5527 5526 5524 5523 5524 5524 5525 5526 5527 5529 5530 5532 5532 5533 5534 5534 5535 5535 5535 5535 5535 5535 5535 5535 5535 5535 5535 5535 5535 5535 5535 5535 5535 5534 5534 5533 5532 5531 5529
5532 5530 5528 5526 5524 5522 5520 5519 5519 5518 5519 5519 5520 5520 5521 5522 5523 5524 5524 5525 5525 5525 5525 5525 5525 5525 5524 5524 5524 5524 5524 5524 5524 5524 5524 5524 5524 5524 5523 5522 5522 5521 5520 5518
5526 5524 5522 5520 5518 5517 5515 5514 5514 5514 5514 5514 5514 5514 5514 5514 5515 5516 5516 5516 5516 5516 5516 5516 5515 5515 5515 5514 5514 5514 5514 5514 5514 5514 5513 5513 5513 5513 5512 5511 5510 5509 5508 5507
5519 5517 5516 5514 5512 5511 5509 5508 5508 5508 5507 5507 5507 5507 5507 5507 5507 5507 5508 5508 5507 5507 5507 5507 5506 5506 5505 5505 5504 5504 5504 5504 5503 5503 5503 5503 5502 5501 5501 5500 5499 5498 5496 5495
5511 5510 5508 5506 5505 5504 5502 5501 5501 5500 5500 5500 5500 5500 5499 5499 5499 5500 5500 5500 5499 5499 5499 5498 5497 5497 5496 5495 5495 5494 5494 5494 5493 5493 5493 5492 5491 5491 5490 5489 5488 5486 5485 5483
5503 5501 5499 5498 5496 5495 5494 5493 5493 5492 5492 5492 5492 5492 5491 5491 5491 5491 5492 5491 5491 5491 5490 5489 5489 5488 5487 5486 5485 5485 5484 5484 5483 5483 5482 5482 5481 5480 5479 5478 5476 5475 5473 5472
5493 5491 5489 5488 5487 5486 5485 5484 5484 5483 5483 5483 5483 5483 5483 5483 5483 5483 5483 5483 5483 5482 5482 5481 5480 5479 5478 5477 5476 5475 5475 5474 5474 5473 5472 5472 5471 5469 5468 5467 5465 5464 5462 5461
5482 5480 5479 5477 5476 5475 5474 5474 5473 5473 5473 5473 5473 5473 5474 5474 5474 5474 5474 5474 5474 5473 5473 5472 5471 5470 5469 5468 5467 5466 5465 5465 5464 5463 5462 5461 5460 5459 5458 5456 5455 5453 5451 5450
5470 5468 5467 5465 5464 5463 5463 5463 5463 5463 5463 5463 5463 5463 5464 5464 5464 5464 5464 5464 5464 5464 5463 5462 5462 5461 5460 5459 5458 5457 5456 5455 5454 5453 5452 5451 5450 5448 5447 5446 5444 5442 5441 5439